TimeMST,TemperatureF,Dew PointF,Humidity,Sea Level PressureIn,VisibilityMPH,Wind Direction,Wind SpeedMPH,Gust SpeedMPH,PrecipitationIn,Events,Conditions,WindDirDegrees,DateUTC
12:04 AM,17.6,14.0,86,30.24,0.5,Calm,Calm,-,N/A,Fog,Light Freezing Fog,0,2013-12-27 07:04:00
12:12 AM,17.6,15.8,93,30.23,0.2,Calm,Calm,-,N/A,Fog,Light Freezing Fog,0,2013-12-27 07:12:00
12:20 AM,15.8,14.0,93,30.23,0.8,Calm,Calm,-,N/A,,Mist,0,2013-12-27 07:20:00
12:27 AM,17.6,17.6,100,30.23,1.0,Calm,Calm,-,N/A,,Mist,0,2013-12-27 07:27:00
12:36 AM,17.6,17.6,100,30.23,0.2,Calm,Calm,-,N/A,Fog,Light Freezing Fog,0,2013-12-27 07:36:00
12:55 AM,18.0,16.0,92,30.35,0.2,Calm,Calm,-,N/A,Fog,Light Freezing Fog,0,2013-12-27 07:55:00
1:17 AM,17.6,15.8,93,30.23,0.5,Calm,Calm,-,N/A,Fog,Light Freezing Fog,0,2013-12-27 08:17:00
1:28 AM,17.6,15.8,93,30.23,0.2,Calm,Calm,-,N/A,Fog,Light Freezing Fog,0,2013-12-27 08:28:00
1:50 AM,17.6,15.8,93,30.22,0.2,Calm,Calm,-,N/A,Fog,Light Freezing Fog,0,2013-12-27 08:50:00
1:55 AM,17.1,15.1,92,30.34,0.2,Calm,Calm,-,N/A,Fog,Light Freezing Fog,0,2013-12-27 08:55:00
2:08 AM,17.6,15.8,93,30.22,0.5,Calm,Calm,-,N/A,Fog,Light Freezing Fog,0,2013-12-27 09:08:00
2:21 AM,17.6,15.8,93,30.23,0.2,Calm,Calm,-,N/A,Fog,Light Freezing Fog,0,2013-12-27 09:21:00
2:50 AM,17.6,15.8,93,30.23,0.2,NNE,3.5,-,N/A,Fog,Light Freezing Fog,30,2013-12-27 09:50:00
2:55 AM,18.0,15.1,88,30.35,0.2,Calm,Calm,-,N/A,Fog,Light Freezing Fog,0,2013-12-27 09:55:00
3:27 AM,17.6,14.0,86,30.24,0.5,Calm,Calm,-,N/A,Fog,Light Freezing Fog,0,2013-12-27 10:27:00
3:36 AM,17.6,14.0,86,30.24,0.2,NW,3.5,-,N/A,Fog,Light Freezing Fog,310,2013-12-27 10:36:00
3:55 AM,17.1,14.0,88,30.35,0.2,Calm,Calm,-,N/A,Fog,Light Freezing Fog,0,2013-12-27 10:55:00
4:04 AM,17.6,14.0,86,30.23,0.2,Calm,Calm,-,N/A,Fog,Light Freezing Fog,0,2013-12-27 11:04:00
4:20 AM,15.8,12.2,86,30.23,0.5,Calm,Calm,-,N/A,Fog,Light Freezing Fog,0,2013-12-27 11:20:00
4:26 AM,15.8,14.0,93,30.23,0.2,North,4.6,-,N/A,Fog,Light Freezing Fog,350,2013-12-27 11:26:00
4:51 AM,17.6,12.2,79,30.23,0.8,Calm,Calm,-,N/A,,Mist,0,2013-12-27 11:51:00
4:55 AM,17.1,12.9,84,30.35,1.0,Calm,Calm,-,N/A,,Mist,0,2013-12-27 11:55:00
5:06 AM,17.6,14.0,86,30.23,0.5,Calm,Calm,-,N/A,Fog,Light Freezing Fog,0,2013-12-27 12:06:00
5:13 AM,17.6,14.0,86,30.22,0.2,Calm,Calm,-,N/A,Fog,Light Freezing Fog,0,2013-12-27 12:13:00
5:26 AM,17.6,14.0,86,30.23,0.2,Calm,Calm,-,N/A,Fog,Light Freezing Fog,0,2013-12-27 12:26:00
5:41 AM,17.6,14.0,86,30.22,0.2,Calm,Calm,-,N/A,Fog,Light Freezing Fog,0,2013-12-27 12:41:00
5:55 AM,16.0,14.0,92,30.33,0.2,Calm,Calm,-,N/A,Fog,Light Freezing Fog,0,2013-12-27 12:55:00
6:16 AM,15.8,12.2,86,30.21,0.5,Calm,Calm,-,N/A,Fog,Light Freezing Fog,0,2013-12-27 13:16:00
6:27 AM,15.8,10.4,79,30.21,0.8,Calm,Calm,-,N/A,,Mist,0,2013-12-27 13:27:00
6:55 AM,14.0,10.0,84,30.33,1.0,Calm,Calm,-,N/A,,Overcast,0,2013-12-27 13:55:00
7:12 AM,14.0,10.4,86,30.21,0.5,Calm,Calm,-,N/A,Fog,Light Freezing Fog,0,2013-12-27 14:12:00
7:23 AM,14.0,10.4,86,30.21,0.8,Calm,Calm,-,N/A,,Mist,0,2013-12-27 14:23:00
7:36 AM,14.0,10.4,86,30.21,1.0,Calm,Calm,-,N/A,,Mist,0,2013-12-27 14:36:00
7:48 AM,12.2,10.4,92,30.21,0.5,Calm,Calm,-,N/A,Fog,Light Freezing Fog,0,2013-12-27 14:48:00
7:55 AM,14.0,10.0,84,30.34,1.0,Calm,Calm,-,N/A,,Mist,0,2013-12-27 14:55:00
8:04 AM,14.0,10.4,86,30.20,0.2,Calm,Calm,-,N/A,Fog,Light Freezing Fog,0,2013-12-27 15:04:00
8:36 AM,15.8,12.2,86,30.19,0.2,Calm,Calm,-,N/A,Fog,Light Freezing Fog,0,2013-12-27 15:36:00
8:55 AM,16.0,12.9,88,30.32,0.2,Calm,Calm,-,N/A,Fog,Light Freezing Fog,0,2013-12-27 15:55:00
9:25 AM,19.4,15.8,86,30.18,0.2,Calm,Calm,-,N/A,Fog,Light Freezing Fog,0,2013-12-27 16:25:00
9:46 AM,19.4,15.8,86,30.18,0.2,Calm,Calm,-,N/A,Fog,Light Freezing Fog,0,2013-12-27 16:46:00
9:55 AM,19.9,15.1,81,30.30,0.2,Calm,Calm,-,N/A,,Haze,0,2013-12-27 16:55:00
10:19 AM,21.2,15.8,80,30.16,1.0,Calm,Calm,-,N/A,,Haze,0,2013-12-27 17:19:00
10:22 AM,21.2,15.8,80,30.16,2.5,Calm,Calm,-,N/A,,Haze,0,2013-12-27 17:22:00
10:30 AM,21.2,17.6,86,30.16,3.0,Calm,Calm,-,N/A,,Haze,0,2013-12-27 17:30:00
10:55 AM,21.9,18.0,85,30.27,4.0,Calm,Calm,-,N/A,,Clear,0,2013-12-27 17:55:00
11:55 AM,25.0,21.0,85,30.23,5.0,Calm,Calm,-,N/A,,Clear,0,2013-12-27 18:55:00
12:05 PM,24.8,19.4,80,30.10,7.0,West,4.6,-,N/A,,Scattered Clouds,280,2013-12-27 19:05:00
12:55 PM,25.0,21.9,88,30.19,8.0,Calm,Calm,-,N/A,,Scattered Clouds,0,2013-12-27 19:55:00
1:55 PM,28.0,24.1,85,30.14,7.0,Calm,Calm,-,N/A,,Clear,0,2013-12-27 20:55:00
2:55 PM,28.0,25.0,88,30.12,7.0,Calm,Calm,-,N/A,,Clear,0,2013-12-27 21:55:00
3:55 PM,27.0,24.1,89,30.09,7.0,Calm,Calm,-,N/A,,Clear,0,2013-12-27 22:55:00
4:55 PM,26.1,25.0,96,30.08,7.0,Calm,Calm,-,N/A,,Clear,0,2013-12-27 23:55:00
5:55 PM,25.0,23.0,92,30.06,4.0,Calm,Calm,-,N/A,,Overcast,0,2013-12-28 00:55:00
6:55 PM,28.0,25.0,88,30.06,6.0,East,9.2,-,0.00,,Overcast,90,2013-12-28 01:55:00
7:55 PM,28.0,26.1,92,30.03,8.0,Calm,Calm,-,0.00,,Overcast,0,2013-12-28 02:55:00
8:55 PM,28.9,27.0,92,30.05,10.0,Calm,Calm,-,N/A,,Overcast,0,2013-12-28 03:55:00
9:55 PM,28.0,26.1,92,30.06,10.0,Calm,Calm,-,0.00,,Overcast,0,2013-12-28 04:55:00
10:55 PM,24.1,23.0,96,30.07,7.0,Calm,Calm,-,N/A,,Mostly Cloudy,0,2013-12-28 05:55:00
11:55 PM,24.1,21.9,91,30.06,8.0,SW,5.8,-,N/A,,Partly Cloudy,220,2013-12-28 06:55:00